sat.trackr.live / text

‹ back to catalog

STARLINK-31460

NORAD 59008 · 2024-036L

PAYLOAD ACTIVE UNKNOWN

§ Identity

Operator
Country
US
Launch date
2024-02-23
Launch site
AFWTR
Launch vehicle
Mass (kg)
RCS (m²)

Purposes: comms

External: N2YO · Heavens-Above · Gunter

§ Orbital elements

Epoch: 2026-09-20T22:42:18.983520Z

Period
93.85 min
Inclination
53.1596°
Eccentricity
0.0001497
Mean motion
15.34388910 rev/d
Perigee alt
461.7 km
Apogee alt
463.8 km
Semi-major
6,840.9 km
B*
1.2660e-5
RAAN
249.3618°
Arg perigee
79.9118°
Mean anomaly
280.2053°
Rev number
14,524

§ Raw data

STARLINK-314601 59008U 24036L   26263.94605305  .00000051  00000+0  12660-4 0  99922 59008  53.1596 249.3618 0001497  79.9118 280.2053 15.34388910145240

JSON: /api/v1/satellites/59008 · /tle

For live sub-satellite position, see the globe view (requires WebGL).

§ Visibility from observer

Set your observer location to see the next 7 days of passes ≥ 10°. The values pass through the URL so the page stays shareable.

No JS? Fill the form by hand. The geolocation button needs JavaScript.